"datetime","temp","dp","rain_mm","uv","solar","mb","wind_mph","gust_mph","windchill","rh"
"2022-01-01 00:00:00",13.0,12.7,0.0,0.0,0,1019.0,2,3,"",98
"2022-01-01 00:01:00",13.0,12.7,0.0,0.0,0,1019.0,2,4,"",98
"2022-01-01 00:02:00",13.0,12.7,0.0,0.0,0,1019.0,1,2,"",98
"2022-01-01 00:03:00",13.1,12.8,0.0,0.0,0,1019.0,5,8,"",98
"2022-01-01 00:04:00",13.1,12.8,0.0,0.0,0,1019.0,4,7,"",98
"2022-01-01 00:05:00",13.1,12.8,0.0,0.0,0,1019.0,3,5,"",98
"2022-01-01 00:06:00",13.1,12.6,0.0,0.0,0,1019.0,4,10,"",97
"2022-01-01 00:07:00",13.1,12.8,0.0,0.0,0,1019.0,3,6,"",98
"2022-01-01 00:08:00",13.1,12.8,0.0,0.0,0,1019.0,3,5,"",98
"2022-01-01 00:09:00",13.1,12.6,0.0,0.0,0,1018.9,2,3,"",97
"2022-01-01 00:10:00",13.1,12.6,0.0,0.0,0,1018.9,2,4,"",97
"2022-01-01 00:11:00",13.1,12.6,0.0,0.0,0,1018.9,1,3,"",97
"2022-01-01 00:12:00",13.1,12.6,0.0,0.0,0,1018.9,2,4,"",97
"2022-01-01 00:13:00",13.1,12.6,0.0,0.0,0,1018.9,3,5,"",97
"2022-01-01 00:14:00",13.1,12.6,0.0,0.0,0,1018.9,1,3,"",97
"2022-01-01 00:15:00",13.1,12.6,0.0,0.0,0,1018.9,2,3,"",97
"2022-01-01 00:16:00",13.1,12.8,0.0,0.0,0,1018.9,1,3,"",98
"2022-01-01 00:17:00",13.1,12.6,0.0,0.0,0,1018.9,2,4,"",97
"2022-01-01 00:18:00",13.1,12.6,0.0,0.0,0,1018.9,2,3,"",97
"2022-01-01 00:19:00",13.1,12.8,0.0,0.0,0,1018.9,3,6,"",98
"2022-01-01 00:20:00",13.1,12.8,0.0,0.0,0,1018.9,4,7,"",98
"2022-01-01 00:21:00",13.1,12.8,0.0,0.0,0,1018.9,2,3,"",98
"2022-01-01 00:22:00",13.1,12.6,0.0,0.0,0,1018.8,2,4,"",97
"2022-01-01 00:23:00",13.1,12.8,0.0,0.0,0,1018.8,3,4,"",98
"2022-01-01 00:24:00",13.1,12.8,0.0,0.0,0,1018.8,3,4,"",98
"2022-01-01 00:25:00",13.0,12.5,0.0,0.0,0,1018.8,2,4,"",97
"2022-01-01 00:26:00",13.1,12.6,0.0,0.0,0,1018.8,2,3,"",97
"2022-01-01 00:27:00",13.1,12.6,0.0,0.0,0,1018.8,5,8,"",97
"2022-01-01 00:28:00",13.1,12.6,0.0,0.0,0,1018.8,1,3,"",97
"2022-01-01 00:29:00",13.1,12.8,0.0,0.0,0,1018.7,3,4,"",98
"2022-01-01 00:30:00",13.1,12.6,0.0,0.0,0,1018.7,2,6,"",97
"2022-01-01 00:31:00",13.1,12.8,0.0,0.0,0,1018.8,3,5,"",98
"2022-01-01 00:32:00",13.1,12.6,0.0,0.0,0,1018.8,4,6,"",97
"2022-01-01 00:33:00",13.1,12.8,0.0,0.0,0,1018.7,4,7,"",98
"2022-01-01 00:34:00",13.1,12.8,0.0,0.0,0,1018.8,5,8,"",98
"2022-01-01 00:35:00",13.1,12.6,0.0,0.0,0,1018.8,4,7,"",97
"2022-01-01 00:36:00",13.1,12.8,0.0,0.0,0,1018.7,2,3,"",98
"2022-01-01 00:37:00",13.1,12.8,0.0,0.0,0,1018.8,2,3,"",98
"2022-01-01 00:38:00",13.1,12.8,0.0,0.0,0,1018.8,3,6,"",98
"2022-01-01 00:39:00",13.1,12.6,0.0,0.0,0,1018.8,3,7,"",97
"2022-01-01 00:40:00",13.1,12.6,0.0,0.0,0,1018.8,3,5,"",97
"2022-01-01 00:41:00",13.1,12.8,0.0,0.0,0,1018.8,1,4,"",98
"2022-01-01 00:42:00",13.1,12.8,0.0,0.0,0,1018.7,2,5,"",98
"2022-01-01 00:43:00",13.1,12.6,0.0,0.0,0,1018.7,3,6,"",97
"2022-01-01 00:44:00",13.1,12.6,0.0,0.0,0,1018.8,5,8,"",97
"2022-01-01 00:45:00",13.1,12.8,0.0,0.0,0,1018.8,2,4,"",98
"2022-01-01 00:46:00",13.1,12.6,0.0,0.0,0,1018.7,4,6,"",97
"2022-01-01 00:47:00",13.1,12.8,0.0,0.0,0,1018.7,2,7,"",98
"2022-01-01 00:48:00",13.1,12.8,0.0,0.0,0,1018.7,5,7,"",98
"2022-01-01 00:49:00",13.1,12.6,0.0,0.0,0,1018.7,4,7,"",97
"2022-01-01 00:50:00",13.1,12.8,0.0,0.0,0,1018.7,4,7,"",98
"2022-01-01 00:51:00",13.1,12.8,0.0,0.0,0,1018.7,4,6,"",98
"2022-01-01 00:52:00",13.1,12.8,0.0,0.0,0,1018.8,2,3,"",98
"2022-01-01 00:53:00",13.1,12.8,0.0,0.0,0,1018.8,3,6,"",98
"2022-01-01 00:54:00",13.1,12.8,0.0,0.0,0,1018.8,4,6,"",98
"2022-01-01 00:55:00",13.1,12.8,0.0,0.0,0,1018.8,3,6,"",98
"2022-01-01 00:56:00",13.0,12.7,0.0,0.0,0,1018.9,2,5,"",98
"2022-01-01 00:57:00",13.0,12.7,0.0,0.0,0,1018.8,3,6,"",98
"2022-01-01 00:58:00",13.1,12.8,0.0,0.0,0,1018.9,3,6,"",98
"2022-01-01 00:59:00",13.0,12.7,0.0,0.0,0,1018.9,2,3,"",98
"2022-01-01 01:00:00",13.0,12.7,0.0,0.0,0,1018.9,3,6,"",98
"2022-01-01 01:01:00",13.0,12.7,0.0,0.0,0,1018.9,3,6,"",98
"2022-01-01 01:02:00",13.0,12.7,0.0,0.0,0,1018.9,3,5,"",98
"2022-01-01 01:03:00",13.0,12.7,0.0,0.0,0,1018.9,2,4,"",98
"2022-01-01 01:04:00",13.0,12.7,0.0,0.0,0,1019.0,3,7,"",98
"2022-01-01 01:05:00",13.0,12.7,0.0,0.0,0,1018.9,3,5,"",98
"2022-01-01 01:06:00",13.0,12.7,0.0,0.0,0,1018.9,1,3,"",98
"2022-01-01 01:07:00",13.0,12.7,0.0,0.0,0,1018.9,2,4,"",98
"2022-01-01 01:08:00",13.0,12.7,0.0,0.0,0,1018.9,4,7,"",98
"2022-01-01 01:09:00",13.0,12.7,0.0,0.0,0,1018.8,2,6,"",98
"2022-01-01 01:10:00",12.9,12.6,0.0,0.0,0,1018.9,2,4,"",98
"2022-01-01 01:11:00",12.9,12.6,0.0,0.0,0,1018.9,5,9,"",98
"2022-01-01 01:12:00",13.0,12.7,0.0,0.0,0,1018.9,3,6,"",98
"2022-01-01 01:13:00",12.9,12.6,0.0,0.0,0,1018.9,2,3,"",98
"2022-01-01 01:14:00",13.0,12.7,0.0,0.0,0,1018.9,3,5,"",98
"2022-01-01 01:15:00",12.9,12.6,0.0,0.0,0,1019.0,3,7,"",98
"2022-01-01 01:16:00",12.9,12.6,0.0,0.0,0,1019.0,3,4,"",98
"2022-01-01 01:17:00",12.9,12.6,0.0,0.0,0,1018.9,2,3,"",98
"2022-01-01 01:18:00",12.9,12.6,0.0,0.0,0,1018.8,3,4,"",98
"2022-01-01 01:19:00",12.9,12.6,0.0,0.0,0,1018.8,3,5,"",98
"2022-01-01 01:20:00",12.9,12.6,0.0,0.0,0,1018.8,3,4,"",98
"2022-01-01 01:21:00",12.9,12.6,0.0,0.0,0,1018.8,2,4,"",98
"2022-01-01 01:22:00",12.9,12.6,0.0,0.0,0,1018.8,2,3,"",98
"2022-01-01 01:23:00",12.9,12.6,0.0,0.0,0,1018.8,2,5,"",98
"2022-01-01 01:24:00",12.9,12.6,0.0,0.0,0,1018.8,4,9,"",98
"2022-01-01 01:25:00",12.9,12.6,0.0,0.0,0,1018.8,3,8,"",98
"2022-01-01 01:26:00",12.9,12.6,0.0,0.0,0,1018.7,4,7,"",98
"2022-01-01 01:27:00",12.9,12.6,0.0,0.0,0,1018.7,2,3,"",98
"2022-01-01 01:28:00",12.9,12.6,0.0,0.0,0,1018.7,3,6,"",98
"2022-01-01 01:29:00",12.9,12.6,0.0,0.0,0,1018.7,4,6,"",98
"2022-01-01 01:30:00",12.9,12.6,0.0,0.0,0,1018.6,2,3,"",98
"2022-01-01 01:31:00",12.9,12.6,0.0,0.0,0,1018.7,1,2,"",98
"2022-01-01 01:32:00",12.9,12.6,0.0,0.0,0,1018.7,2,4,"",98
"2022-01-01 01:33:00",12.9,12.6,0.0,0.0,0,1018.7,2,3,"",98
"2022-01-01 01:34:00",12.9,12.6,0.0,0.0,0,1018.6,1,3,"",98
"2022-01-01 01:35:00",12.8,12.5,0.0,0.0,0,1018.6,1,2,"",98
"2022-01-01 01:36:00",12.8,12.5,0.0,0.0,0,1018.6,2,3,"",98
"2022-01-01 01:37:00",12.9,12.6,0.0,0.0,0,1018.6,3,6,"",98
"2022-01-01 01:38:00",12.9,12.6,0.0,0.0,0,1018.6,3,4,"",98
"2022-01-01 01:39:00",12.8,12.5,0.0,0.0,0,1018.6,4,6,"",98
"2022-01-01 01:40:00",12.9,12.6,0.0,0.0,0,1018.5,4,6,"",98
"2022-01-01 01:41:00",12.8,12.5,0.0,0.0,0,1018.6,3,6,"",98
"2022-01-01 01:42:00",12.8,12.5,0.0,0.0,0,1018.6,3,4,"",98
"2022-01-01 01:43:00",12.8,12.5,0.0,0.0,0,1018.6,4,11,"",98
"2022-01-01 01:44:00",12.8,12.5,0.0,0.0,0,1018.6,3,9,"",98
"2022-01-01 01:45:00",12.8,12.5,0.0,0.0,0,1018.5,2,5,"",98
"2022-01-01 01:46:00",12.8,12.5,0.0,0.0,0,1018.5,4,7,"",98
"2022-01-01 01:47:00",12.9,12.4,0.0,0.0,0,1018.5,3,6,"",97
"2022-01-01 01:48:00",12.8,12.5,0.0,0.0,0,1018.6,3,6,"",98
"2022-01-01 01:49:00",12.8,12.3,0.0,0.0,0,1018.6,4,7,"",97
"2022-01-01 01:50:00",12.9,12.6,0.0,0.0,0,1018.6,3,6,"",98
"2022-01-01 01:51:00",12.8,12.5,0.0,0.0,0,1018.6,5,9,"",98
"2022-01-01 01:52:00",12.9,12.6,0.0,0.0,0,1018.5,6,11,"",98
"2022-01-01 01:53:00",12.9,12.6,0.0,0.0,0,1018.4,2,4,"",98
"2022-01-01 01:54:00",12.9,12.6,0.0,0.0,0,1018.5,3,8,"",98
"2022-01-01 01:55:00",12.8,12.5,0.0,0.0,0,1018.5,3,6,"",98
"2022-01-01 01:56:00",12.9,12.6,0.0,0.0,0,1018.5,3,5,"",98
"2022-01-01 01:57:00",12.8,12.5,0.0,0.0,0,1018.6,4,8,"",98
"2022-01-01 01:58:00",12.8,12.5,0.0,0.0,0,1018.5,1,3,"",98
"2022-01-01 01:59:00",12.9,12.6,0.0,0.0,0,1018.5,4,6,"",98
"2022-01-01 02:00:00",12.8,12.5,0.0,0.0,0,1018.5,2,4,"",98
"2022-01-01 02:01:00",12.9,12.6,0.0,0.0,0,1018.5,3,6,"",98
"2022-01-01 02:02:00",12.8,12.5,0.0,0.0,0,1018.6,4,6,"",98
"2022-01-01 02:03:00",12.8,12.5,0.0,0.0,0,1018.5,3,5,"",98
"2022-01-01 02:04:00",12.8,12.3,0.0,0.0,0,1018.5,3,7,"",97
"2022-01-01 02:05:00",12.9,12.6,0.0,0.0,0,1018.6,2,4,"",98
"2022-01-01 02:06:00",12.8,12.3,0.0,0.0,0,1018.6,2,5,"",97
"2022-01-01 02:07:00",12.8,12.3,0.0,0.0,0,1018.6,3,5,"",97
"2022-01-01 02:08:00",12.8,12.5,0.0,0.0,0,1018.7,3,5,"",98
"2022-01-01 02:09:00",12.8,12.3,0.0,0.0,0,1018.7,2,5,"",97
"2022-01-01 02:10:00",12.8,12.3,0.0,0.0,0,1018.6,1,2,"",97
"2022-01-01 02:11:00",12.8,12.3,0.0,0.0,0,1018.7,2,5,"",97
"2022-01-01 02:12:00",12.8,12.3,0.0,0.0,0,1018.7,1,3,"",97
"2022-01-01 02:13:00",12.8,12.5,0.0,0.0,0,1018.7,2,3,"",98
"2022-01-01 02:14:00",12.8,12.3,0.0,0.0,0,1018.7,2,3,"",97
"2022-01-01 02:15:00",12.8,12.5,0.0,0.0,0,1018.7,3,5,"",98
"2022-01-01 02:16:00",12.8,12.5,0.0,0.0,0,1018.7,2,4,"",98
"2022-01-01 02:17:00",12.8,12.3,0.0,0.0,0,1018.7,2,4,"",97
"2022-01-01 02:18:00",12.8,12.3,0.0,0.0,0,1018.7,3,4,"",97
"2022-01-01 02:19:00",12.8,12.3,0.0,0.0,0,1018.7,5,7,"",97
"2022-01-01 02:20:00",12.8,12.3,0.0,0.0,0,1018.7,2,4,"",97
"2022-01-01 02:21:00",12.8,12.3,0.0,0.0,0,1018.7,2,5,"",97
"2022-01-01 02:22:00",12.8,12.3,0.0,0.0,0,1018.7,2,3,"",97
"2022-01-01 02:23:00",12.8,12.3,0.0,0.0,0,1018.7,2,3,"",97
"2022-01-01 02:24:00",12.8,12.5,0.0,0.0,0,1018.8,2,3,"",98
"2022-01-01 02:25:00",12.8,12.3,0.0,0.0,0,1018.7,2,4,"",97
"2022-01-01 02:26:00",12.8,12.3,0.0,0.0,0,1018.8,3,4,"",97
"2022-01-01 02:27:00",12.8,12.3,0.0,0.0,0,1018.8,3,6,"",97
"2022-01-01 02:28:00",12.8,12.3,0.0,0.0,0,1018.8,3,5,"",97
"2022-01-01 02:29:00",12.8,12.3,0.0,0.0,0,1018.8,3,5,"",97
"2022-01-01 02:30:00",12.8,12.3,0.0,0.0,0,1018.8,2,4,"",97
"2022-01-01 02:31:00",12.8,12.3,0.0,0.0,0,1018.8,1,2,"",97
"2022-01-01 02:32:00",12.8,12.3,0.0,0.0,0,1018.8,3,7,"",97
"2022-01-01 02:33:00",12.8,12.3,0.0,0.0,0,1018.8,4,6,"",97
"2022-01-01 02:34:00",12.8,12.3,0.0,0.0,0,1018.8,2,3,"",97
"2022-01-01 02:35:00",12.8,12.3,0.0,0.0,0,1018.8,1,2,"",97
"2022-01-01 02:36:00",12.8,12.3,0.0,0.0,0,1018.7,1,2,"",97
"2022-01-01 02:37:00",12.8,12.3,0.0,0.0,0,1018.7,2,3,"",97
"2022-01-01 02:38:00",12.8,12.3,0.0,0.0,0,1018.7,3,5,"",97
"2022-01-01 02:39:00",12.8,12.3,0.0,0.0,0,1018.7,2,4,"",97
"2022-01-01 02:40:00",12.8,12.3,0.0,0.0,0,1018.8,3,6,"",97
"2022-01-01 02:41:00",12.8,12.3,0.0,0.0,0,1018.8,2,4,"",97
"2022-01-01 02:42:00",12.8,12.3,0.0,0.0,0,1018.8,2,3,"",97
"2022-01-01 02:43:00",12.8,12.3,0.0,0.0,0,1018.8,1,3,"",97
"2022-01-01 02:44:00",12.8,12.3,0.0,0.0,0,1018.8,2,5,"",97
"2022-01-01 02:45:00",12.8,12.3,0.0,0.0,0,1018.8,1,3,"",97
"2022-01-01 02:46:00",12.8,12.3,0.0,0.0,0,1018.8,4,6,"",97
"2022-01-01 02:47:00",12.8,12.3,0.0,0.0,0,1018.7,4,6,"",97
"2022-01-01 02:48:00",12.8,12.3,0.0,0.0,0,1018.8,2,4,"",97
"2022-01-01 02:49:00",12.8,12.3,0.0,0.0,0,1018.8,1,3,"",97
"2022-01-01 02:50:00",12.8,12.3,0.0,0.0,0,1018.8,2,5,"",97
"2022-01-01 02:51:00",12.8,12.3,0.0,0.0,0,1018.8,2,4,"",97
"2022-01-01 02:52:00",12.8,12.3,0.0,0.0,0,1018.8,1,2,"",97
"2022-01-01 02:53:00",12.8,12.3,0.0,0.0,0,1018.8,2,4,"",97
"2022-01-01 02:54:00",12.8,12.3,0.0,0.0,0,1018.8,3,5,"",97
"2022-01-01 02:55:00",12.8,12.3,0.0,0.0,0,1018.8,2,4,"",97
"2022-01-01 02:56:00",12.8,12.3,0.0,0.0,0,1018.9,3,6,"",97
"2022-01-01 02:57:00",12.8,12.3,0.0,0.0,0,1018.9,1,2,"",97
"2022-01-01 02:58:00",12.8,12.3,0.0,0.0,0,1018.9,2,4,"",97
"2022-01-01 02:59:00",12.8,12.3,0.0,0.0,0,1018.8,1,3,"",97
"2022-01-01 03:00:00",12.8,12.3,0.0,0.0,0,1018.8,2,3,"",97
"2022-01-01 03:01:00",12.8,12.3,0.0,0.0,0,1018.7,2,5,"",97
"2022-01-01 03:02:00",12.8,12.3,0.0,0.0,0,1018.8,3,5,"",97
"2022-01-01 03:03:00",12.8,12.3,0.0,0.0,0,1018.8,3,6,"",97
"2022-01-01 03:04:00",12.8,12.3,0.0,0.0,0,1018.8,2,3,"",97
"2022-01-01 03:05:00",12.8,12.3,0.0,0.0,0,1018.8,4,8,"",97
"2022-01-01 03:06:00",12.8,12.3,0.0,0.0,0,1018.8,3,5,"",97
"2022-01-01 03:07:00",12.7,12.2,0.0,0.0,0,1018.8,3,5,"",97
"2022-01-01 03:08:00",12.8,12.3,0.0,0.0,0,1018.7,3,7,"",97
"2022-01-01 03:09:00",12.7,12.2,0.0,0.0,0,1018.7,2,4,"",97
"2022-01-01 03:10:00",12.8,12.3,0.0,0.0,0,1018.7,1,2,"",97
"2022-01-01 03:11:00",12.7,12.2,0.0,0.0,0,1018.7,2,4,"",97
"2022-01-01 03:12:00",12.7,12.2,0.0,0.0,0,1018.7,2,3,"",97
"2022-01-01 03:13:00",12.7,12.2,0.0,0.0,0,1018.7,3,6,"",97
"2022-01-01 03:14:00",12.7,12.2,0.0,0.0,0,1018.7,5,8,"",97
"2022-01-01 03:15:00",12.7,12.2,0.0,0.0,0,1018.7,2,4,"",97
"2022-01-01 03:16:00",12.7,12.2,0.0,0.0,0,1018.7,2,3,"",97
"2022-01-01 03:17:00",12.7,12.2,0.0,0.0,0,1018.7,3,7,"",97
"2022-01-01 03:18:00",12.7,12.4,0.0,0.0,0,1018.7,2,3,"",98
"2022-01-01 03:19:00",12.7,12.2,0.0,0.0,0,1018.7,3,6,"",97
"2022-01-01 03:20:00",12.7,12.2,0.0,0.0,0,1018.7,3,6,"",97
"2022-01-01 03:21:00",12.7,12.2,0.0,0.0,0,1018.6,3,4,"",97
"2022-01-01 03:22:00",12.7,12.2,0.0,0.0,0,1018.6,2,4,"",97
"2022-01-01 03:23:00",12.7,12.2,0.0,0.0,0,1018.6,3,4,"",97
"2022-01-01 03:24:00",12.7,12.2,0.0,0.0,0,1018.5,4,6,"",97
"2022-01-01 03:25:00",12.7,12.2,0.0,0.0,0,1018.5,1,2,"",97
"2022-01-01 03:26:00",12.7,12.2,0.0,0.0,0,1018.6,2,3,"",97
"2022-01-01 03:27:00",12.7,12.4,0.0,0.0,0,1018.6,3,7,"",98
"2022-01-01 03:28:00",12.7,12.2,0.0,0.0,0,1018.6,2,4,"",97
"2022-01-01 03:29:00",12.7,12.2,0.0,0.0,0,1018.5,2,3,"",97
"2022-01-01 03:30:00",12.7,12.2,0.0,0.0,0,1018.5,2,5,"",97
"2022-01-01 03:31:00",12.7,12.2,0.0,0.0,0,1018.6,3,6,"",97
"2022-01-01 03:32:00",12.7,12.2,0.0,0.0,0,1018.5,2,5,"",97
"2022-01-01 03:33:00",12.7,12.2,0.0,0.0,0,1018.6,1,2,"",97
"2022-01-01 03:34:00",12.6,12.1,0.0,0.0,0,1018.5,1,2,"",97
"2022-01-01 03:35:00",12.7,12.2,0.0,0.0,0,1018.6,1,2,"",97
"2022-01-01 03:36:00",12.7,12.2,0.0,0.0,0,1018.5,1,2,"",97
"2022-01-01 03:37:00",12.7,12.2,0.0,0.0,0,1018.5,2,3,"",97
"2022-01-01 03:38:00",12.7,12.2,0.0,0.0,0,1018.6,2,3,"",97
"2022-01-01 03:39:00",12.6,12.1,0.0,0.0,0,1018.5,2,4,"",97
"2022-01-01 03:40:00",12.7,12.2,0.0,0.0,0,1018.5,2,6,"",97
"2022-01-01 03:41:00",12.6,12.1,0.0,0.0,0,1018.5,3,6,"",97
"2022-01-01 03:42:00",12.6,12.1,0.0,0.0,0,1018.5,3,4,"",97
"2022-01-01 03:43:00",12.6,12.1,0.0,0.0,0,1018.5,2,4,"",97
"2022-01-01 03:44:00",12.6,12.1,0.0,0.0,0,1018.5,3,4,"",97
"2022-01-01 03:45:00",12.6,12.1,0.0,0.0,0,1018.5,2,4,"",97
"2022-01-01 03:46:00",12.6,12.1,0.0,0.0,0,1018.5,3,5,"",97
"2022-01-01 03:47:00",12.6,12.1,0.0,0.0,0,1018.5,3,6,"",97
"2022-01-01 03:48:00",12.6,12.1,0.0,0.0,0,1018.5,3,5,"",97
"2022-01-01 03:49:00",12.6,12.1,0.0,0.0,0,1018.5,3,5,"",97
"2022-01-01 03:50:00",12.5,12.0,0.0,0.0,0,1018.4,3,5,"",97
"2022-01-01 03:51:00",12.6,12.1,0.0,0.0,0,1018.5,3,5,"",97
"2022-01-01 03:52:00",12.6,12.1,0.0,0.0,0,1018.4,3,4,"",97
"2022-01-01 03:53:00",12.6,12.1,0.0,0.0,0,1018.4,3,5,"",97
"2022-01-01 03:54:00",12.5,12.0,0.0,0.0,0,1018.4,1,3,"",97
"2022-01-01 03:55:00",12.6,12.1,0.0,0.0,0,1018.5,1,2,"",97
"2022-01-01 03:56:00",12.5,12.0,0.0,0.0,0,1018.4,3,5,"",97
"2022-01-01 03:57:00",12.5,12.0,0.0,0.0,0,1018.4,3,6,"",97
"2022-01-01 03:58:00",12.5,12.0,0.0,0.0,0,1018.4,2,4,"",97
"2022-01-01 03:59:00",12.5,12.0,0.0,0.0,0,1018.4,4,6,"",97
"2022-01-01 04:00:00",12.5,12.0,0.0,0.0,0,1018.4,3,4,"",97
"2022-01-01 04:01:00",12.5,12.0,0.0,0.0,0,1018.4,3,5,"",97
"2022-01-01 04:02:00",12.5,12.0,0.0,0.0,0,1018.4,4,5,"",97
"2022-01-01 04:03:00",12.5,12.0,0.0,0.0,0,1018.4,4,7,"",97
"2022-01-01 04:04:00",12.5,12.0,0.0,0.0,0,1018.4,3,4,"",97
"2022-01-01 04:05:00",12.5,12.0,0.0,0.0,0,1018.4,2,4,"",97
"2022-01-01 04:06:00",12.5,12.0,0.0,0.0,0,1018.4,3,7,"",97
"2022-01-01 04:07:00",12.5,12.2,0.0,0.0,0,1018.4,1,3,"",98
"2022-01-01 04:08:00",12.5,12.2,0.0,0.0,0,1018.4,1,3,"",98
"2022-01-01 04:09:00",12.5,12.0,0.0,0.0,0,1018.4,5,9,"",97
"2022-01-01 04:10:00",12.6,12.3,0.0,0.0,0,1018.3,4,8,"",98
"2022-01-01 04:11:00",12.6,12.3,0.0,0.0,0,1018.3,3,4,"",98
"2022-01-01 04:12:00",12.6,12.3,0.0,0.0,0,1018.3,5,7,"",98
"2022-01-01 04:13:00",12.6,12.3,0.0,0.0,0,1018.3,2,4,"",98
"2022-01-01 04:14:00",12.6,12.3,0.0,0.0,0,1018.3,4,10,"",98
"2022-01-01 04:15:00",12.6,12.3,0.0,0.0,0,1018.3,4,8,"",98
"2022-01-01 04:16:00",12.6,12.3,0.0,0.0,0,1018.4,2,4,"",98
"2022-01-01 04:17:00",12.6,12.3,0.0,0.0,0,1018.3,4,7,"",98
"2022-01-01 04:18:00",12.6,12.3,0.0,0.0,0,1018.3,3,6,"",98
"2022-01-01 04:19:00",12.6,12.3,0.0,0.0,0,1018.3,4,8,"",98
"2022-01-01 04:20:00",12.6,12.3,0.0,0.0,0,1018.3,4,6,"",98
"2022-01-01 04:21:00",12.6,12.3,0.0,0.0,0,1018.3,3,5,"",98
"2022-01-01 04:22:00",12.6,12.3,0.0,0.0,0,1018.3,3,6,"",98
"2022-01-01 04:23:00",12.6,12.3,0.0,0.0,0,1018.3,2,3,"",98
"2022-01-01 04:24:00",12.7,12.4,0.0,0.0,0,1018.2,3,6,"",98
"2022-01-01 04:25:00",12.6,12.3,0.0,0.0,0,1018.2,3,6,"",98
"2022-01-01 04:26:00",12.6,12.3,0.0,0.0,0,1018.2,4,7,"",98
"2022-01-01 04:27:00",12.7,12.4,0.0,0.0,0,1018.2,4,8,"",98
"2022-01-01 04:28:00",12.7,12.4,0.0,0.0,0,1018.1,3,4,"",98
"2022-01-01 04:29:00",12.7,12.4,0.0,0.0,0,1018.1,2,3,"",98
"2022-01-01 04:30:00",12.7,12.4,0.0,0.0,0,1018.0,4,8,"",98
"2022-01-01 04:31:00",12.7,12.4,0.0,0.0,0,1018.1,3,4,"",98
"2022-01-01 04:32:00",12.7,12.4,0.0,0.0,0,1018.1,4,7,"",98
"2022-01-01 04:33:00",12.7,12.2,0.0,0.0,0,1018.1,3,5,"",97
"2022-01-01 04:34:00",12.7,12.4,0.0,0.0,0,1018.1,2,3,"",98
"2022-01-01 04:35:00",12.7,12.4,0.0,0.0,0,1018.1,3,7,"",98
"2022-01-01 04:36:00",12.7,12.2,0.0,0.0,0,1018.1,3,5,"",97
"2022-01-01 04:37:00",12.7,12.2,0.0,0.0,0,1018.0,2,4,"",97
"2022-01-01 04:38:00",12.7,12.2,0.0,0.0,0,1018.1,4,7,"",97
"2022-01-01 04:39:00",12.7,12.4,0.0,0.0,0,1018.0,4,5,"",98
"2022-01-01 04:40:00",12.7,12.2,0.0,0.0,0,1018.1,4,6,"",97
"2022-01-01 04:41:00",12.7,12.4,0.0,0.0,0,1018.1,4,8,"",98
"2022-01-01 04:42:00",12.7,12.2,0.0,0.0,0,1018.1,2,5,"",97
"2022-01-01 04:43:00",12.7,12.2,0.0,0.0,0,1018.1,4,6,"",97
"2022-01-01 04:44:00",12.7,12.2,0.0,0.0,0,1018.1,4,5,"",97
"2022-01-01 04:45:00",12.7,12.2,0.0,0.0,0,1018.1,4,9,"",97
"2022-01-01 04:46:00",12.7,12.2,0.0,0.0,0,1018.0,3,5,"",97
"2022-01-01 04:47:00",12.7,12.2,0.0,0.0,0,1018.1,3,4,"",97
"2022-01-01 04:48:00",12.7,12.2,0.0,0.0,0,1018.1,3,5,"",97
"2022-01-01 04:49:00",12.7,12.2,0.0,0.0,0,1018.1,3,6,"",97
"2022-01-01 04:50:00",12.7,12.2,0.0,0.0,0,1018.0,4,10,"",97
"2022-01-01 04:51:00",12.7,12.2,0.0,0.0,0,1017.9,4,10,"",97
"2022-01-01 04:52:00",12.7,12.2,0.0,0.0,0,1018.0,4,7,"",97
"2022-01-01 04:53:00",12.7,12.2,0.0,0.0,0,1017.9,3,6,"",97
"2022-01-01 04:54:00",12.7,12.2,0.0,0.0,0,1017.9,2,3,"",97
"2022-01-01 04:55:00",12.7,12.2,0.0,0.0,0,1017.9,2,6,"",97
"2022-01-01 04:56:00",12.8,12.3,0.0,0.0,0,1017.9,3,4,"",97
"2022-01-01 04:57:00",12.8,12.3,0.0,0.0,0,1017.8,2,6,"",97
"2022-01-01 04:58:00",12.7,12.2,0.0,0.0,0,1017.8,3,6,"",97
"2022-01-01 04:59:00",12.7,12.2,0.0,0.0,0,1017.8,6,12,"",97
"2022-01-01 05:00:00",12.8,12.3,0.0,0.0,0,1017.9,6,11,"",97
"2022-01-01 05:01:00",12.7,12.2,0.0,0.0,0,1017.8,3,6,"",97
"2022-01-01 05:02:00",12.8,12.3,0.0,0.0,0,1017.8,5,11,"",97
"2022-01-01 05:03:00",12.8,12.3,0.0,0.0,0,1017.8,4,7,"",97
"2022-01-01 05:04:00",12.8,12.3,0.0,0.0,0,1017.9,3,4,"",97
"2022-01-01 05:05:00",12.8,12.3,0.0,0.0,0,1017.8,5,10,"",97
"2022-01-01 05:06:00",12.8,12.3,0.0,0.0,0,1017.8,5,8,"",97
"2022-01-01 05:07:00",12.8,12.3,0.0,0.0,0,1017.7,4,10,"",97
"2022-01-01 05:08:00",12.8,12.3,0.0,0.0,0,1017.7,3,5,"",97
"2022-01-01 05:09:00",12.8,12.3,0.0,0.0,0,1017.7,2,4,"",97
"2022-01-01 05:10:00",12.8,12.3,0.0,0.0,0,1017.7,5,6,"",97
"2022-01-01 05:11:00",12.8,12.3,0.0,0.0,0,1017.7,4,11,"",97
"2022-01-01 05:12:00",12.8,12.3,0.0,0.0,0,1017.7,4,6,"",97
"2022-01-01 05:13:00",12.8,12.3,0.0,0.0,0,1017.7,3,7,"",97
"2022-01-01 05:14:00",12.8,12.3,0.0,0.0,0,1017.7,4,6,"",97
"2022-01-01 05:15:00",12.8,12.3,0.0,0.0,0,1017.7,5,9,"",97
"2022-01-01 05:16:00",12.8,12.3,0.0,0.0,0,1017.6,3,6,"",97
"2022-01-01 05:17:00",12.8,12.3,0.0,0.0,0,1017.6,3,5,"",97
"2022-01-01 05:18:00",12.7,12.2,0.0,0.0,0,1017.6,4,7,"",97
"2022-01-01 05:19:00",12.8,12.3,0.0,0.0,0,1017.6,5,9,"",97
"2022-01-01 05:20:00",12.8,12.3,0.0,0.0,0,1017.6,3,6,"",97
"2022-01-01 05:21:00",12.8,12.3,0.0,0.0,0,1017.5,4,9,"",97
"2022-01-01 05:22:00",12.8,12.3,0.0,0.0,0,1017.5,5,6,"",97
"2022-01-01 05:23:00",12.8,12.3,0.0,0.0,0,1017.4,2,5,"",97
"2022-01-01 05:24:00",12.8,12.3,0.0,0.0,0,1017.4,4,6,"",97
"2022-01-01 05:25:00",12.8,12.3,0.0,0.0,0,1017.4,4,5,"",97
"2022-01-01 05:26:00",12.8,12.3,0.0,0.0,0,1017.4,5,9,"",97
"2022-01-01 05:27:00",12.8,12.3,0.0,0.0,0,1017.3,3,6,"",97
"2022-01-01 05:28:00",12.8,12.3,0.0,0.0,0,1017.4,2,4,"",97
"2022-01-01 05:29:00",12.8,12.3,0.0,0.0,0,1017.3,3,5,"",97
"2022-01-01 05:30:00",12.8,12.3,0.0,0.0,0,1017.3,3,4,"",97
"2022-01-01 05:31:00",12.8,12.3,0.0,0.0,0,1017.3,3,6,"",97
"2022-01-01 05:32:00",12.8,12.3,0.0,0.0,0,1017.4,2,4,"",97
"2022-01-01 05:33:00",12.7,12.2,0.0,0.0,0,1017.3,3,5,"",97
"2022-01-01 05:34:00",12.7,12.2,0.0,0.0,0,1017.3,3,5,"",97
"2022-01-01 05:35:00",12.7,12.2,0.0,0.0,0,1017.3,3,4,"",97
"2022-01-01 05:36:00",12.7,12.2,0.0,0.0,0,1017.3,3,5,"",97
"2022-01-01 05:37:00",12.7,12.2,0.0,0.0,0,1017.3,3,4,"",97
"2022-01-01 05:38:00",12.7,12.2,0.0,0.0,0,1017.3,3,4,"",97
"2022-01-01 05:39:00",12.7,12.2,0.0,0.0,0,1017.2,4,6,"",97
"2022-01-01 05:40:00",12.7,12.2,0.0,0.0,0,1017.3,5,11,"",97
"2022-01-01 05:41:00",12.7,12.2,0.0,0.0,0,1017.3,3,5,"",97
"2022-01-01 05:42:00",12.7,12.2,0.0,0.0,0,1017.3,3,5,"",97
"2022-01-01 05:43:00",12.7,12.2,0.0,0.0,0,1017.3,4,6,"",97
"2022-01-01 05:44:00",12.7,12.2,0.0,0.0,0,1017.3,3,6,"",97
"2022-01-01 05:45:00",12.7,12.2,0.0,0.0,0,1017.3,2,3,"",97
"2022-01-01 05:46:00",12.7,12.2,0.0,0.0,0,1017.3,2,6,"",97
"2022-01-01 05:47:00",12.7,12.2,0.0,0.0,0,1017.3,2,4,"",97
"2022-01-01 05:48:00",12.7,12.2,0.0,0.0,0,1017.3,2,3,"",97
"2022-01-01 05:49:00",12.7,12.2,0.0,0.0,0,1017.3,5,8,"",97
"2022-01-01 05:50:00",12.7,12.2,0.0,0.0,0,1017.3,4,6,"",97
"2022-01-01 05:51:00",12.7,12.2,0.0,0.0,0,1017.2,2,4,"",97
"2022-01-01 05:52:00",12.7,12.2,0.0,0.0,0,1017.3,2,3,"",97
"2022-01-01 05:53:00",12.7,12.2,0.0,0.0,0,1017.2,3,6,"",97
"2022-01-01 05:54:00",12.6,12.1,0.0,0.0,0,1017.2,3,4,"",97
"2022-01-01 05:55:00",12.7,12.2,0.0,0.0,0,1017.1,2,3,"",97
"2022-01-01 05:56:00",12.6,12.1,0.0,0.0,0,1017.1,2,3,"",97
"2022-01-01 05:57:00",12.6,12.1,0.0,0.0,0,1017.1,2,3,"",97
"2022-01-01 05:58:00",12.6,12.1,0.0,0.0,0,1017.2,3,6,"",97
"2022-01-01 05:59:00",12.6,12.1,0.0,0.0,0,1017.1,3,6,"",97
"2022-01-01 06:00:00",12.6,12.1,0.0,0.0,0,1017.1,1,3,"",97
"2022-01-01 06:01:00",12.6,12.1,0.0,0.0,0,1017.1,3,6,"",97
"2022-01-01 06:02:00",12.6,12.1,0.0,0.0,0,1017.0,2,3,"",97
"2022-01-01 06:03:00",12.6,12.1,0.0,0.0,0,1017.0,2,3,"",97
"2022-01-01 06:04:00",12.6,12.1,0.0,0.0,0,1017.0,1,2,"",97
"2022-01-01 06:05:00",12.6,12.1,0.0,0.0,0,1016.9,1,3,"",97
"2022-01-01 06:06:00",12.6,12.1,0.0,0.0,0,1016.9,2,3,"",97
"2022-01-01 06:07:00",12.6,12.1,0.0,0.0,0,1016.9,1,2,"",97
"2022-01-01 06:08:00",12.6,12.1,0.0,0.0,0,1016.9,2,3,"",97
"2022-01-01 06:09:00",12.6,12.1,0.0,0.0,0,1016.9,3,6,"",97
"2022-01-01 06:10:00",12.6,12.1,0.0,0.0,0,1016.9,4,6,"",97
"2022-01-01 06:11:00",12.6,12.1,0.0,0.0,0,1016.9,3,4,"",97
"2022-01-01 06:12:00",12.6,12.1,0.0,0.0,0,1016.9,2,4,"",97
"2022-01-01 06:13:00",12.6,12.1,0.0,0.0,0,1016.9,3,4,"",97
"2022-01-01 06:14:00",12.6,12.1,0.0,0.0,0,1016.9,2,3,"",97
"2022-01-01 06:15:00",12.6,12.1,0.0,0.0,0,1016.9,2,4,"",97
"2022-01-01 06:16:00",12.6,12.1,0.0,0.0,0,1016.9,3,6,"",97
"2022-01-01 06:17:00",12.5,12.0,0.0,0.0,0,1016.8,1,3,"",97
"2022-01-01 06:18:00",12.6,12.1,0.0,0.0,0,1016.8,2,3,"",97
"2022-01-01 06:19:00",12.5,12.0,0.0,0.0,0,1016.8,1,2,"",97
"2022-01-01 06:20:00",12.5,12.0,0.0,0.0,0,1016.7,3,5,"",97
"2022-01-01 06:21:00",12.5,12.0,0.0,0.0,0,1016.7,4,7,"",97
"2022-01-01 06:22:00",12.5,12.0,0.0,0.0,0,1016.7,3,5,"",97
"2022-01-01 06:23:00",12.4,11.9,0.0,0.0,0,1016.7,2,3,"",97
"2022-01-01 06:24:00",12.5,12.0,0.0,0.0,0,1016.7,2,3,"",97
"2022-01-01 06:25:00",12.4,11.9,0.0,0.0,0,1016.6,2,3,"",97
"2022-01-01 06:26:00",12.4,11.9,0.0,0.0,0,1016.6,2,3,"",97
"2022-01-01 06:27:00",12.4,11.9,0.0,0.0,0,1016.6,2,5,"",97
"2022-01-01 06:28:00",12.4,11.9,0.0,0.0,0,1016.6,3,5,"",97
"2022-01-01 06:29:00",12.4,11.9,0.0,0.0,0,1016.6,2,4,"",97
"2022-01-01 06:30:00",12.4,11.9,0.0,0.0,0,1016.5,2,3,"",97
"2022-01-01 06:31:00",12.4,11.9,0.0,0.0,0,1016.4,2,3,"",97
"2022-01-01 06:32:00",12.4,11.9,0.0,0.0,0,1016.4,2,5,"",97
"2022-01-01 06:33:00",12.4,11.9,0.0,0.0,0,1016.4,2,4,"",97
"2022-01-01 06:34:00",12.4,11.9,0.0,0.0,0,1016.4,2,3,"",97
"2022-01-01 06:35:00",12.3,11.8,0.0,0.0,0,1016.3,3,5,"",97
"2022-01-01 06:36:00",12.3,11.8,0.0,0.0,0,1016.4,2,4,"",97
"2022-01-01 06:37:00",12.3,11.8,0.0,0.0,0,1016.3,4,6,"",97
"2022-01-01 06:38:00",12.3,11.8,0.0,0.0,0,1016.4,3,5,"",97
"2022-01-01 06:39:00",12.3,11.8,0.0,0.0,0,1016.4,2,6,"",97
"2022-01-01 06:40:00",12.3,11.8,0.0,0.0,0,1016.4,4,7,"",97
"2022-01-01 06:41:00",12.2,11.7,0.0,0.0,0,1016.4,2,3,"",97
"2022-01-01 06:42:00",12.3,11.8,0.0,0.0,0,1016.4,5,11,"",97
"2022-01-01 06:43:00",12.3,11.8,0.0,0.0,0,1016.4,3,6,"",97
"2022-01-01 06:44:00",12.2,11.7,0.0,0.0,0,1016.3,4,7,"",97